DW2781 Weather Reports


time (UTC)temp
F
wind
direction
speed
knots
gust
knots
rain 1hr
in
rain 24hr
in
rain mn
in
humidity
%
barometer
mb
20260906204004 107 166 3.5 9.6 0.00 0.00 0.00 31 1011.6
20260906203504 107 163 5.2 11.3 0.00 0.00 0.00 32 1011.8
20260906203005 106 174 4.3 11.3 0.00 0.00 0.00 32 1011.8
20260906202505 105 179 2.6 9.6 0.00 0.00 0.00 31 1011.8
20260906202005 106 167 3.5 9.6 0.00 0.00 0.00 32 1012.0
20260906201505 106 115 3.5 9.6 0.00 0.00 0.00 33 1011.9
20260906201026 106 94 3.5 7.0 0.00 0.00 0.00 34 1012.0
20260906200505 106 104 4.3 10.4 0.00 0.00 0.00 34 1012.1
20260906200005 106 122 3.5 10.4 0.00 0.00 0.00 33 1012.2
20260906195526 106 166 1.7 6.1 0.00 0.00 0.00 32 1012.3
20260906195004 106 167 3.5 11.3 0.00 0.00 0.00 33 1012.4
20260906194504 106 169 5.2 11.3 0.00 0.00 0.00 32 1012.5
20260906194004 106 161 5.2 11.3 0.00 0.00 0.00 33 1012.5
20260906193504 105 178 3.5 10.4 0.00 0.00 0.00 34 1012.5
20260906193004 103 192 3.5 9.6 0.00 0.00 0.00 39 1012.6
20260906192504 104 187 4.3 10.4 0.00 0.00 0.00 33 1012.8
20260906192004 105 197 5.2 13.9 0.00 0.00 0.00 35 1012.8
20260906191505 105 195 6.1 13.9 0.00 0.00 0.00 33 1012.8
20260906191005 105 184 4.3 12.2 0.00 0.00 0.00 31 1012.9
20260906190526 106 165 2.6 9.6 0.00 0.00 0.00 34 1012.9
20260906190026 104 132 1.7 7.8 0.00 0.00 0.00 37 1013.0
20260906185505 104 144 2.6 10.4 0.00 0.00 0.00 35 1013.1
20260906185005 104 148 2.6 12.2 0.00 0.00 0.00 35 1013.1
20260906184504 104 115 1.7 12.2 0.00 0.00 0.00 36 1013.2
20260906184004 103 84 1.7 7.0 0.00 0.00 0.00 40 1013.3
20260906183525 103 157 2.6 8.7 0.00 0.00 0.00 35 1013.4
20260906183004 103 156 3.5 8.7 0.00 0.00 0.00 38 1013.5
20260906182504 104 129 3.5 8.7 0.00 0.00 0.00 36 1013.6
20260906182004 103 161 2.6 8.7 0.00 0.00 0.00 39 1013.6
20260906181504 102 218 2.6 7.0 0.00 0.00 0.00 37 1013.7
20260906181025 102 193 4.3 13.9 0.00 0.00 0.00 36 1013.7
20260906180504 103 177 5.2 13.9 0.00 0.00 0.00 37 1013.8
20260906180004 103 167 4.3 9.6 0.00 0.00 0.00 38 1013.9
20260906175505 102 164 2.6 9.6 0.00 0.00 0.00 38 1014.0
20260906175005 102 151 2.6 7.8 0.00 0.00 0.00 40 1014.1
20260906174504 102 116 3.5 7.8 0.00 0.00 0.00 40 1014.2
20260906174025 101 83 4.3 10.4 0.00 0.00 0.00 42 1014.4
20260906173526 100 87 3.5 10.4 0.00 0.00 0.00 43 1014.4
20260906173026 101 132 2.6 10.4 0.00 0.00 0.00 41 1014.4
20260906172504 100 171 3.5 8.7 0.00 0.00 0.00 40 1014.6
20260906172005 102 133 3.5 8.7 0.00 0.00 0.00 40 1014.7
20260906171504 99 106 2.6 7.0 0.00 0.00 0.00 45 1014.8
20260906171004 98 119 1.7 6.1 0.00 0.00 0.00 47 1014.8
20260906170504 96 230 0.9 5.2 0.00 0.00 0.00 46 1014.9
20260906170004 96 250 1.7 6.1 0.00 0.00 0.00 45 1015.0
20260906165504 97 253 0.9 6.1 0.00 0.00 0.00 44 1015.0
20260906165004 97 248 0.9 6.1 0.00 0.00 0.00 44 1015.1
20260906164504 96 242 1.7 6.1 0.00 0.00 0.00 45 1015.2
20260906164004 96 233 0.9 3.5 0.00 0.00 0.00 45 1015.3
20260906163504 96 233 0.0 3.5 0.00 0.00 0.00 45 1015.3
20260906163004 96 235 1.7 7.0 0.00 0.00 0.00 45 1015.3
20260906162504 96 235 1.7 7.0 0.00 0.00 0.00 44 1015.3
20260906162004 97 230 1.7 7.8 0.00 0.00 0.00 43 1015.2
20260906161504 98 202 1.7 7.8 0.00 0.00 0.00 43 1015.2
20260906161004 97 184 2.6 6.1 0.00 0.00 0.00 43 1015.2
20260906160504 96 189 2.6 7.0 0.00 0.00 0.00 45 1015.2
20260906160026 96 193 1.7 7.0 0.00 0.00 0.00 45 1015.1
20260906155505 96 185 1.7 5.2 0.00 0.00 0.00 46 1015.1
20260906155004 95 187 2.6 6.1 0.00 0.00 0.00 46 1015.1
20260906154504 94 189 1.7 6.1 0.00 0.00 0.00 48 1015.0
20260906154005 94 204 1.7 5.2 0.00 0.00 0.00 51 1015.0
20260906153504 93 212 1.7 5.2 0.00 0.00 0.00 50 1015.0
20260906153004 93 227 2.6 7.0 0.00 0.00 0.00 50 1015.0
20260906152504 92 241 1.7 7.0 0.00 0.00 0.00 50 1014.9
20260906152004 92 226 1.7 6.1 0.00 0.00 0.00 52 1015.0
20260906151504 91 216 1.7 3.5 0.00 0.00 0.00 53 1014.8
20260906151004 90 226 1.7 4.3 0.00 0.00 0.00 54 1014.9
20260906150504 90 244 1.7 4.3 0.00 0.00 0.00 56 1014.9
20260906150004 90 248 1.7 4.3 0.00 0.00 0.00 55 1014.9
20260906145526 89 232 1.7 5.2 0.00 0.00 0.00 55 1014.9
20260906145005 89 234 1.7 7.0 0.00 0.00 0.00 56 1014.9
20260906144505 88 248 2.6 7.0 0.00 0.00 0.00 56 1014.9
20260906144005 88 237 1.7 6.1 0.00 0.00 0.00 57 1014.9
20260906143505 87 218 1.7 5.2 0.00 0.00 0.00 58 1014.9
20260906143004 87 209 1.7 5.2 0.00 0.00 0.00 58 1014.9
20260906142525 86 207 0.9 4.3 0.00 0.00 0.00 60 1014.9
20260906142004 86 215 2.6 6.1 0.00 0.00 0.00 60 1014.8
20260906141505 85 220 2.6 6.1 0.00 0.00 0.00 61 1014.8
20260906141004 85 227 1.7 7.0 0.00 0.00 0.00 62 1014.8
20260906140504 84 224 1.7 7.0 0.00 0.00 0.00 63 1014.7
20260906140004 83 221 1.7 4.3 0.00 0.00 0.00 65 1014.7
20260906135504 82 216 1.7 4.3 0.00 0.00 0.00 66 1014.6
20260906135025 82 208 0.9 3.5 0.00 0.00 0.00 67 1014.5
20260906134504 81 200 0.9 2.6 0.00 0.00 0.00 70 1014.5
20260906134004 80 200 0.9 2.6 0.00 0.00 0.00 69 1014.5
20260906133504 80 200 0.0 1.7 0.00 0.00 0.00 70 1014.5
20260906133004 79 200 0.0 2.6 0.00 0.00 0.00 70 1014.5
20260906132504 79 200 0.0 2.6 0.00 0.00 0.00 71 1014.4
20260906132004 79 200 0.0 1.7 0.00 0.00 0.00 70 1014.6
20260906131504 78 200 0.0 1.7 0.00 0.00 0.00 70 1014.4
20260906131005 78 200 0.9 2.6 0.00 0.00 0.00 70 1014.4
20260906130505 78 199 0.9 3.5 0.00 0.00 0.00 70 1014.3
20260906130005 78 199 0.9 3.5 0.00 0.00 0.00 70 1014.3
20260906125505 78 198 0.0 2.6 0.00 0.00 0.00 70 1014.2
20260906125004 78 0 0.0 0.0 0.00 0.00 0.00 70 1014.2
20260906124504 78 0 0.0 0.0 0.00 0.00 0.00 70 1014.1
20260906124004 78 0 0.0 0.0 0.00 0.00 0.00 69 1014.1
20260906123504 78 0 0.0 0.0 0.00 0.00 0.00 69 1014.0
20260906123004 78 0 0.0 0.0 0.00 0.00 0.00 68 1014.0
20260906122504 78 0 0.0 0.0 0.00 0.00 0.00 68 1013.9
20260906122005 78 0 0.0 0.0 0.00 0.00 0.00 68 1013.9
20260906121525 78 0 0.0 0.0 0.00 0.00 0.00 68 1013.8
20260906121004 78 0 0.0 0.0 0.00 0.00 0.00 67 1013.8
20260906120504 78 0 0.0 0.0 0.00 0.00 0.00 67 1013.8
20260906120004 78 0 0.0 0.0 0.00 0.00 0.00 67 1013.8
20260906115504 78 0 0.0 0.0 0.00 0.00 0.00 67 1013.7
20260906115004 78 0 0.0 0.0 0.00 0.00 0.00 66 1013.7
20260906114525 78 0 0.0 0.0 0.00 0.00 0.00 66 1013.6
20260906114004 78 0 0.0 0.0 0.00 0.00 0.00 66 1013.5
20260906113504 78 0 0.0 0.0 0.00 0.00 0.00 66 1013.4
20260906113004 79 0 0.0 0.0 0.00 0.00 0.00 66 1013.4
20260906112526 79 0 0.0 0.0 0.00 0.00 0.00 66 1013.4
20260906112004 79 0 0.0 0.0 0.00 0.00 0.00 65 1013.2
20260906111504 79 0 0.0 0.0 0.00 0.00 0.00 65 1013.2
20260906111004 79 0 0.0 0.0 0.00 0.00 0.00 65 1013.2
20260906110525 79 0 0.0 0.0 0.00 0.00 0.00 65 1013.2
20260906110004 79 0 0.0 0.0 0.00 0.00 0.00 64 1013.2
20260906105504 80 0 0.0 0.0 0.00 0.00 0.00 64 1013.2
20260906105004 80 0 0.0 0.0 0.00 0.00 0.00 63 1013.2
20260906104525 80 0 0.0 0.0 0.00 0.00 0.00 63 1013.1
20260906104025 80 0 0.0 0.0 0.00 0.00 0.00 63 1013.0
20260906103504 80 0 0.0 0.0 0.00 0.00 0.00 63 1013.0
20260906103004 80 0 0.0 0.0 0.00 0.00 0.00 63 1013.0
20260906102504 80 0 0.0 0.0 0.00 0.00 0.00 62 1013.1
20260906102025 80 0 0.0 0.0 0.00 0.00 0.00 62 1013.1
20260906101504 81 0 0.0 0.0 0.00 0.00 0.00 62 1012.9
20260906101003 81 0 0.0 0.0 0.00 0.00 0.00 62 1012.9
20260906100504 81 0 0.0 0.0 0.00 0.00 0.00 62 1012.9
20260906100003 81 0 0.0 0.0 0.00 0.00 0.00 61 1012.9
20260906095504 81 0 0.0 0.0 0.00 0.00 0.00 61 1013.0
20260906095004 81 0 0.0 0.0 0.00 0.00 0.00 59 1012.8
20260906094504 82 0 0.0 0.0 0.00 0.00 0.00 59 1012.9
20260906094004 82 0 0.0 0.0 0.00 0.00 0.00 59 1012.9
20260906093504 82 0 0.0 0.0 0.00 0.00 0.00 59 1012.8
20260906093004 82 0 0.0 0.0 0.00 0.00 0.00 59 1012.8
20260906092504 82 0 0.0 0.0 0.00 0.00 0.00 59 1012.8
20260906092004 82 0 0.0 0.0 0.00 0.00 0.00 58 1012.9
20260906091504 82 0 0.0 0.0 0.00 0.00 0.00 59 1013.0
20260906091004 82 0 0.0 0.0 0.00 0.00 0.00 58 1012.9
20260906090504 82 0 0.0 0.0 0.00 0.00 0.00 58 1012.9
20260906090004 83 0 0.0 0.0 0.00 0.00 0.00 58 1012.9
20260906085504 83 0 0.0 0.0 0.00 0.00 0.00 58 1012.8
20260906085004 83 0 0.0 0.0 0.00 0.00 0.00 58 1012.9
20260906084524 83 0 0.0 0.0 0.00 0.00 0.00 58 1012.9
20260906084005 83 0 0.0 0.0 0.00 0.00 0.00 57 1012.8
20260906083504 83 0 0.0 0.0 0.00 0.00 0.00 57 1012.8
20260906083004 83 0 0.0 0.0 0.00 0.00 0.00 57 1012.7
20260906082505 83 0 0.0 0.0 0.00 0.00 0.00 56 1012.7
20260906082025 84 0 0.0 0.0 0.00 0.00 0.00 56 1012.7
20260906081504 84 0 0.0 0.0 0.00 0.00 0.00 56 1012.7
20260906081004 84 196 0.0 2.6 0.00 0.00 0.00 56 1012.8
20260906080504 84 196 0.9 2.6 0.00 0.00 0.00 55 1012.7
20260906080004 84 196 0.9 2.6 0.00 0.00 0.00 55 1012.8
20260906075504 84 197 0.9 2.6 0.00 0.00 0.00 54 1012.7
20260906075004 84 197 0.0 1.7 0.00 0.00 0.00 54 1012.7
20260906074504 85 0 0.0 0.0 0.00 0.00 0.00 54 1012.7
20260906074004 85 0 0.0 0.0 0.00 0.00 0.00 53 1012.7
20260906073505 85 198 0.0 1.7 0.00 0.00 0.00 53 1012.8
20260906073004 85 198 0.0 1.7 0.00 0.00 0.00 53 1012.8
20260906072504 85 198 0.0 1.7 0.00 0.00 0.00 54 1012.8
20260906072025 85 198 0.0 1.7 0.00 0.00 0.00 54 1012.8
20260906071504 86 198 0.0 0.9 0.00 0.00 0.00 53 1012.8
20260906071004 86 198 0.0 0.9 0.00 0.00 0.00 53 1012.9
20260906070504 86 197 0.0 0.9 0.00 0.00 0.00 52 1012.9
20260906070004 86 196 0.0 2.6 0.00 0.00 0.00 52 1012.9
20260906065504 86 195 0.9 2.6 0.00 0.00 0.00 52 1012.9
20260906065004 86 194 0.0 2.6 0.00 0.00 0.00 51 1012.8
20260906064504 86 0 0.0 0.0 0.00 0.00 0.00 51 1012.8
20260906064004 87 193 0.0 3.5 0.00 0.00 0.00 51 1012.8
20260906063524 87 193 0.0 3.5 0.00 0.00 0.00 51 1012.9
20260906063024 87 189 0.9 3.5 0.00 0.00 0.00 51 1012.9
20260906062525 87 188 0.9 3.5 0.00 0.00 0.00 51 1012.9
20260906062003 87 185 0.9 3.5 0.00 0.00 0.00 51 1012.9
20260906061504 87 186 1.7 4.3 0.00 0.00 0.00 51 1012.9
20260906061003 87 185 1.7 4.3 0.00 0.00 0.00 51 1012.9
20260906060504 87 182 1.7 6.1 0.00 0.00 0.00 51 1012.9
20260906060004 87 187 2.6 7.0 0.00 0.00 0.00 50 1012.9
20260906055504 88 186 3.5 7.0 0.00 0.00 0.00 50 1012.8
20260906055004 88 188 2.6 6.1 0.00 0.00 0.00 50 1012.7
20260906054504 88 197 2.6 5.2 0.00 0.00 0.00 50 1012.8
20260906054004 88 198 2.6 5.2 0.00 0.00 0.00 50 1012.7
20260906053504 88 203 1.7 4.3 0.00 0.00 0.00 49 1012.6
20260906053025 89 208 0.9 3.5 0.00 0.00 0.00 49 1012.6
20260906052504 89 207 1.7 5.2 0.00 0.00 0.00 48 1012.5
20260906052025 89 205 1.7 5.2 0.00 0.00 0.00 48 1012.4
20260906051504 89 202 2.6 5.2 0.00 0.00 0.00 48 1012.4
20260906051004 89 200 1.7 5.2 0.00 0.00 0.00 48 1012.3
20260906050525 89 195 1.7 5.2 0.00 0.00 0.00 48 1012.4
20260906050025 89 190 1.7 7.0 0.00 0.00 0.00 49 1012.3
20260906045503 88 192 2.6 7.0 0.00 0.00 0.00 49 1012.3
20260906045003 88 193 1.7 4.3 0.00 0.00 0.00 50 1012.4
20260906044503 88 189 0.9 3.5 0.00 0.00 0.00 50 1012.4
20260906044003 88 188 0.0 3.5 0.00 0.00 0.00 50 1012.3
20260906043504 88 0 0.0 0.0 0.00 0.00 0.00 49 1012.4
20260906043004 88 185 0.9 2.6 0.00 0.00 0.00 49 1012.4
20260906042504 88 185 0.9 2.6 0.00 0.00 0.00 49 1012.4
20260906042004 89 184 0.9 2.6 0.00 0.00 0.00 49 1012.4
20260906041504 89 183 0.9 3.5 0.00 0.00 0.00 48 1012.4
20260906041004 89 183 0.9 3.5 0.00 0.00 0.00 48 1012.5
20260906040504 90 182 0.9 2.6 0.00 0.00 0.00 48 1012.5
20260906040004 90 182 0.9 3.5 0.00 0.00 0.00 48 1012.5
20260906035504 90 182 0.0 3.5 0.00 0.00 0.00 48 1012.5
20260906035004 90 182 0.9 2.6 0.00 0.00 0.00 48 1012.5
20260906034504 90 183 0.9 3.5 0.00 0.00 0.00 48 1012.5
20260906034003 90 165 0.9 6.1 0.00 0.00 0.00 48 1012.4
20260906033524 90 155 0.9 6.1 0.00 0.00 0.00 48 1012.4
20260906033003 89 0 0.0 0.0 0.00 0.00 0.00 48 1012.3
20260906032504 90 0 0.0 0.0 0.00 0.00 0.00 49 1012.3
20260906032004 90 0 0.0 0.0 0.00 0.00 0.00 48 1012.3
20260906031504 90 0 0.0 0.0 0.00 0.00 0.00 48 1012.3
20260906031004 90 0 0.0 0.0 0.00 0.00 0.00 48 1012.3
20260906030525 90 0 0.0 0.0 0.00 0.00 0.00 48 1012.3
20260906030004 90 0 0.0 0.0 0.00 0.00 0.00 48 1012.3
20260906025504 90 0 0.0 0.0 0.00 0.00 0.00 48 1012.3
20260906025004 90 0 0.0 0.0 0.00 0.00 0.00 48 1012.2
20260906024504 90 0 0.0 0.0 0.00 0.00 0.00 48 1012.2
20260906024004 90 0 0.0 0.0 0.00 0.00 0.00 48 1012.1
20260906023503 91 0 0.0 0.0 0.00 0.00 0.00 47 1012.1
20260906023004 91 0 0.0 0.0 0.00 0.00 0.00 47 1011.9
20260906022503 91 0 0.0 0.0 0.00 0.00 0.00 47 1011.9
20260906022003 91 123 0.0 0.9 0.00 0.00 0.00 47 1011.8
20260906021503 91 123 0.0 0.9 0.00 0.00 0.00 47 1011.8
20260906021024 91 123 0.0 0.9 0.00 0.00 0.00 46 1011.8
20260906020504 92 123 0.0 0.9 0.00 0.00 0.00 46 1011.7
20260906020004 92 123 0.0 1.7 0.00 0.00 0.00 46 1011.7
20260906015525 92 123 0.0 1.7 0.00 0.00 0.00 46 1011.7
20260906015025 92 123 0.0 0.9 0.00 0.00 0.00 45 1011.7
20260906014504 92 122 0.0 0.9 0.00 0.00 0.00 45 1011.6
20260906014004 92 119 0.0 1.7 0.00 0.00 0.00 45 1011.6
20260906013504 93 119 0.0 1.7 0.00 0.00 0.00 45 1011.5
20260906013025 93 119 0.9 3.5 0.00 0.00 0.00 44 1011.4
20260906012503 93 120 0.9 3.5 0.00 0.00 0.00 43 1011.4
20260906012004 94 121 0.9 3.5 0.00 0.00 0.00 43 1011.3
20260906011504 94 120 0.9 3.5 0.00 0.00 0.00 43 1011.3
20260906011004 94 120 0.9 5.2 0.00 0.00 0.00 42 1011.3
20260906010503 95 121 0.9 5.2 0.00 0.00 0.00 41 1011.2
20260906010003 95 140 0.9 6.1 0.00 0.00 0.00 41 1011.1
20260906005504 96 142 0.9 6.1 0.00 0.00 0.00 41 1011.1
20260906005004 96 120 1.7 7.0 0.00 0.00 0.00 40 1011.1
20260906004503 96 110 4.3 9.6 0.00 0.00 0.00 40 1011.0
20260906004024 97 111 5.2 9.6 0.00 0.00 0.00 40 1011.0
20260906003503 97 123 3.5 8.7 0.00 0.00 0.00 39 1011.0
20260906003003 98 118 4.3 9.6 0.00 0.00 0.00 38 1011.0
20260906002503 98 113 4.3 9.6 0.00 0.00 0.00 38 1011.0
20260906002003 98 129 4.3 9.6 0.00 0.00 0.00 37 1010.9
20260906001525 99 135 2.6 9.6 0.00 0.00 0.00 37 1010.8
20260906001025 99 120 1.7 7.0 0.00 0.00 0.00 37 1010.8
20260906000504 99 133 2.6 7.8 0.00 0.00 0.00 37 1010.8
20260906000004 99 141 3.5 8.7 0.00 0.00 0.00 37 1010.8
20260905235504 100 152 2.6 8.7 0.00 0.00 0.00 35 1010.8
20260905235004 102 158 2.6 8.7 0.00 0.00 0.00 35 1010.8
20260905234504 101 135 3.5 8.7 0.00 0.00 0.00 35 1010.7
20260905234004 101 119 4.3 8.7 0.00 0.00 0.00 35 1010.7
20260905233524 102 128 3.5 8.7 0.00 0.00 0.00 34 1010.6
20260905233024 102 143 1.7 8.7 0.00 0.00 0.00 35 1010.6
20260905232525 102 137 1.7 7.8 0.00 0.00 0.00 34 1010.6
20260905232003 102 148 2.6 10.4 0.00 0.00 0.00 34 1010.6
20260905231503 102 156 3.5 10.4 0.00 0.00 0.00 34 1010.6
20260905231003 102 168 5.2 10.4 0.00 0.00 0.00 34 1010.6
20260905230504 103 175 6.1 13.0 0.00 0.00 0.00 33 1010.6
20260905230004 103 178 4.3 13.0 0.00 0.00 0.00 33 1010.6
20260905225504 102 167 3.5 9.6 0.00 0.00 0.00 34 1010.6
20260905225006 103 160 5.2 13.0 0.00 0.00 0.00 34 1010.6
20260905224527 103 170 6.1 13.0 0.00 0.00 0.00 34 1010.6
20260905224005 103 174 5.2 12.2 0.00 0.00 0.00 33 1010.5
20260905223506 104 152 4.3 12.2 0.00 0.00 0.00 33 1010.5
20260905223026 104 157 5.2 13.0 0.00 0.00 0.00 33 1010.5
20260905222506 104 162 3.5 13.0 0.00 0.00 0.00 33 1010.6
20260905222005 103 159 3.5 10.4 0.00 0.00 0.00 34 1010.6
20260905221505 104 174 5.2 11.3 0.00 0.00 0.00 32 1010.6
20260905221005 104 172 4.3 11.3 0.00 0.00 0.00 32 1010.5
20260905220505 104 171 4.3 10.4 0.00 0.00 0.00 32 1010.7
20260905220005 104 184 5.2 11.3 0.00 0.00 0.00 33 1010.6
20260905215526 103 179 5.2 11.3 0.00 0.00 0.00 34 1010.7
20260905215005 104 164 4.3 11.3 0.00 0.00 0.00 34 1010.7
20260905214505 104 162 3.5 10.4 0.00 0.00 0.00 34 1010.9
20260905214005 104 165 4.3 13.9 0.00 0.00 0.00 34 1010.9
20260905213506 104 167 5.2 13.9 0.00 0.00 0.00 36 1011.0
20260905213006 102 154 4.3 13.9 0.00 0.00 0.00 35 1011.0
20260905212506 102 137 3.5 10.4 0.00 0.00 0.00 34 1011.1
20260905212006 103 131 3.5 9.6 0.00 0.00 0.00 35 1011.2
20260905211505 104 143 4.3 13.0 0.00 0.00 0.00 34 1011.3
20260905211026 104 162 4.3 13.0 0.00 0.00 0.00 34 1011.3
20260905210505 104 154 5.2 13.9 0.00 0.00 0.00 34 1011.4
20260905210005 104 162 6.1 14.8 0.00 0.00 0.00 34 1011.4
20260905205505 104 155 6.1 14.8 0.00 0.00 0.00 35 1011.5
20260905205005 104 145 5.2 12.2 0.00 0.00 0.00 33 1011.6
20260905204526 105 137 5.2 13.0 0.00 0.00 0.00 33 1011.6